TimeCDT,TemperatureF,Dew PointF,Humidity,Sea Level PressureIn,VisibilityMPH,Wind Direction,Wind SpeedMPH,Gust SpeedMPH,PrecipitationIn,Events,Conditions,WindDirDegrees,DateUTC
12:54 AM,75.0,61.0,62,30.05,10.0,SSE,10.4,-,N/A,,Clear,160,2013-08-26 05:54:00
1:54 AM,73.9,61.0,64,30.06,10.0,South,9.2,-,N/A,,Clear,170,2013-08-26 06:54:00
2:54 AM,73.0,61.0,66,30.06,10.0,SSE,10.4,-,N/A,,Clear,160,2013-08-26 07:54:00
3:54 AM,71.1,61.0,70,30.06,10.0,SSE,8.1,-,N/A,,Clear,150,2013-08-26 08:54:00
4:54 AM,69.1,61.0,75,30.06,10.0,SSE,6.9,-,N/A,,Clear,160,2013-08-26 09:54:00
5:54 AM,68.0,61.0,78,30.06,10.0,SSE,5.8,-,N/A,,Clear,160,2013-08-26 10:54:00
6:54 AM,66.9,60.1,79,30.07,10.0,SSE,3.5,-,N/A,,Clear,160,2013-08-26 11:54:00
7:54 AM,69.1,60.1,73,30.08,10.0,South,5.8,-,N/A,,Clear,180,2013-08-26 12:54:00
8:54 AM,73.9,61.0,64,30.08,10.0,South,10.4,-,N/A,,Clear,190,2013-08-26 13:54:00
9:54 AM,80.1,61.0,52,30.06,7.0,SSW,15.0,21.9,N/A,,Clear,210,2013-08-26 14:54:00
10:54 AM,84.0,62.1,47,30.06,10.0,SSW,19.6,25.3,N/A,,Clear,200,2013-08-26 15:54:00
11:54 AM,88.0,61.0,40,30.04,10.0,SW,21.9,26.5,N/A,,Clear,220,2013-08-26 16:54:00
12:54 PM,91.0,61.0,36,30.03,10.0,SSW,17.3,26.5,N/A,,Clear,200,2013-08-26 17:54:00
1:54 PM,91.9,60.1,34,30.01,10.0,SSW,18.4,27.6,N/A,,Clear,200,2013-08-26 18:54:00
2:54 PM,93.0,59.0,32,30.00,10.0,SSW,18.4,27.6,N/A,,Clear,200,2013-08-26 19:54:00
3:54 PM,93.0,59.0,32,29.98,10.0,South,19.6,26.5,N/A,,Clear,190,2013-08-26 20:54:00
4:54 PM,93.0,57.0,30,29.97,10.0,South,16.1,28.8,N/A,,Clear,190,2013-08-26 21:54:00
5:54 PM,91.9,55.9,30,29.96,10.0,South,21.9,27.6,N/A,,Clear,190,2013-08-26 22:54:00
6:54 PM,91.0,55.0,29,29.96,10.0,South,16.1,26.5,N/A,,Clear,180,2013-08-26 23:54:00
7:54 PM,87.1,57.9,37,29.96,10.0,SSE,12.7,-,N/A,,Clear,160,2013-08-27 00:54:00
8:54 PM,82.9,59.0,44,29.96,10.0,South,11.5,23.0,N/A,,Clear,170,2013-08-27 01:54:00
9:54 PM,79.0,57.9,48,29.97,10.0,SSE,10.4,-,N/A,,Clear,160,2013-08-27 02:54:00
10:54 PM,77.0,57.9,52,29.98,10.0,SSE,8.1,-,N/A,,Clear,160,2013-08-27 03:54:00
11:54 PM,75.9,57.9,54,29.98,10.0,South,11.5,-,N/A,,Clear,180,2013-08-27 04:54:00